Details From KOAK - Metro Oakland Intl
To KSQL - San Carlos
Flight Number -
Tags generated
Created
Modified
Stats Distance 13 nm / 24 km
Max Altitude 0 ft / 0 m
Waypoints 3
Social Downloads 0
Likes 0
Share VATSIM

Download

Looking for another format? Having issues loading an existing format? Contact us
Advertisement - Login to hide

Notes

Basic altitude profile: - Ascent Rate: 2500ft/min - Ascent Speed: 250kts - Cruise Altitude: 5000ft - Cruise Speed: 420kts - Descent Rate: 1500ft/min - Descent Speed: 250kts Options: - Use NATs: yes - Use PACOTS: yes - Use low airways: yes - Use high airways: yes

Route

KOAK OAK KSQL

ID Type Via Altitude Latitude Longitude Leg Dist Tot Dist Heading (true) Name
O KOAK APT - 0 ft / 0 m 37.72482˚ -122.21952˚ - 0 nm - Metro Oakland Intl
OAK VOR - 0 ft / 0 m 37.72592˚ -122.22358˚ 0 nm 0 nm 289° / 289° OAKLAND VORTAC
O KSQL APT - 0 ft / 0 m 37.51173˚ -122.24939˚ 12 nm 13 nm 185° / 185° San Carlos

Altitude Profile

Advertisement - Login to hide

KOAK

Details ICAO KOAK (OAK)
Name Metro Oakland Intl
Region United States
Timezone America/Los_Angeles (UTC-7.0)
Stats Elevation 9 ft / 3 m (AMSL)
Location 37.724824° -122.219516°
Runways 4
Magnetic Variation 13.420° E

METAR

KOAK 261053Z 26013KT 9SM -RA OVC011 13/11 A3007 RMK AO2 DZE16RAB32 SLP183 P0000 T01280111

Decode

TAF

TAF KOAK 260535Z 2606/2712 28011KT P6SM FEW010 BKN018 BKN060 FM261200 25007KT P6SM BKN025 BKN050 FM261700 24007KT P6SM SCT030 SCT060 FM262100 26010KT P6SM SCT030 SCT200 FM262300 26012KT P6SM SCT025 SCT200 FM270600 25006KT P6SM SCT200 FM270900 24004KT P6SM BKN015

Decode

Departure Runways

ID Width Length Bearing (true) Bearing (mag) Surface Threshold Offset Overrun Length
09L 151 ft / 46 m 5,445 ft / 1,660 m 112.24° 98.82° Asphalt 0 ft / 0 m 0 ft / 0 m
09R 151 ft / 46 m 6,203 ft / 1,891 m 112.24° 98.82° Asphalt 0 ft / 0 m 0 ft / 0 m
11 151 ft / 46 m 9,996 ft / 3,047 m 130.11° 116.69° Asphalt 0 ft / 0 m 400 ft / 122 m
15 75 ft / 23 m 3,378 ft / 1,030 m 164.49° 151.07° Asphalt 0 ft / 0 m 0 ft / 0 m
27L 151 ft / 46 m 6,203 ft / 1,891 m 292.25° 278.83° Asphalt 0 ft / 0 m 112 ft / 34 m
27R 151 ft / 46 m 5,445 ft / 1,660 m 292.25° 278.83° Asphalt 0 ft / 0 m 0 ft / 0 m
29 151 ft / 46 m 9,996 ft / 3,047 m 310.13° 296.71° Asphalt 0 ft / 0 m 499 ft / 152 m
33 75 ft / 23 m 3,378 ft / 1,030 m 344.49° 331.07° Asphalt 0 ft / 0 m 0 ft / 0 m

KSQL

Details ICAO KSQL (SQL)
Name San Carlos
Region United States
Timezone America/Los_Angeles (UTC-7.0)
Stats Elevation 5 ft / 2 m (AMSL)
Location 37.511735° -122.249386°
Runways 1
Magnetic Variation 13.379° E

METAR

KSQL 261055Z AUTO 27004KT 10SM OVC014 13/10 A3008 RMK AO2

Decode

TAF

Not found

Destination Runways

ID Width Length Bearing (true) Bearing (mag) Surface Threshold Offset Overrun Length
12 75 ft / 23 m 2,619 ft / 798 m 138.39° 125.01° Asphalt 0 ft / 0 m 299 ft / 91 m
30 75 ft / 23 m 2,619 ft / 798 m 318.40° 305.02° Asphalt 0 ft / 0 m 135 ft / 41 m